Weather in Karyepolye

Russia / Arkhangel'skaya Oblast'     65°32′22″N   43°41′07″E
temp.,
°C
wind,
m/s
gust,
m/s
humid.,
%
clouds,
%
prec.,
mm/h
press.,
hPa
HPBL,
m
8 march, mon
mon800:00−27nne359844 0.0 1009102
03:00−28nne369844 0.0 1010125
06:00−29nne379877 0.0 1011170
09:00−29nne369677 0.0 1013249
12:00−27n479482 0.0 1014340
15:00−25nne479389 0.0 1015409
18:00−29n379573 0.0 1016181
21:00−33n249752 0.0 101879
9 march, tue
tue900:00−34n239813 0.0 101933
03:00−34nnw12996 0.0 102019
06:00−34nw12990 0.0 102019
09:00−29ssw129524 0.0 102073
12:00−21sw2496100 0.1 1020287
15:00−18w3688100 0.1 1019500
18:00−20wsw2395100 0.0 101849
21:00−24sw229780 0.0 101921
10 march, wed
wed1000:00−23wsw12100100 0.0 101920
03:00−20wsw129696 0.0 101922
06:00−18w239785 0.0 101929
09:00−11wnw3109391 0.0 1018356
12:00−7nw5119085 0.0 1018556
15:00−7nw5109092 0.1 1018528
18:00−11nw4128698 0.0 1018400
21:00−14wnw4128462 0.0 1018277
11 march, thu
thu1100:00−16wnw310868 0.0 1019256
03:00−17w312864 0.0 1018307
06:00−17wsw311850 0.0 1017309
09:00−14w413780 0.0 1016547
12:00−11w511780 0.0 1015765
15:00−10w511800 0.0 1014863
18:00−12wsw4138158 0.0 1013689
21:00−12wsw4148075 0.0 1012703
12 march, fri
fri1200:00−12wsw41382100 0.0 1011668
03:00−12wsw41385100 0.0 1010676
06:00−12sw41188100 0.0 1009623
09:00−11sw51288100 0.0 1008634
12:00−9sw51289100 0.0 1008649
15:00−7wsw51289100 0.0 1008735
18:00−8sw41386100 0.0 1008554
21:00−9sw41289100 0.0 1009495